[[{"header":{"parameterUnit":"m.s-1","parameterCategory":2,"la1":30.2991,"la2":30.254,"lo1":-89.0895,"lo2":-89.0444,"dx":0.0017,"dy":0.0017,"nx":28,"ny":28,"refTime":"2023-02-12T09:00:00:Z","depth":"0","parameterNumber":2,"parameterNumberName":"U-component_of_CURRENTS"},"data":[0,0,0,0,0,0,0,0,0,0,0,0,0,0,0,0,0,0,0,0,0,0,0,0,0,0,0,0,0,0,0,0,0,0,0,0,0,0,0,0,0,0,0,0,0,0,0,0,0,0,0,0,0,0,0,0,0,0,0.3038,0.3037,0,0.2982,0.2981,0.2981,0.3008,0.3009,0.301,0.3012,0.2976,0.2974,0.2971,0,0,0,0,0,0,0,0,0,0,0,0,0,0.3145,0.3143,0.3038,0.3037,0.3036,0.2982,0.2981,0.2981,0.3007,0.3009,0.3011,0.3012,0.2976,0.2974,0.2971,0,0,0,0,0,0,0,0,0,0,0,0,0,0.3095,0.3142,0.3038,0.3043,0.3042,0.2982,0.2981,0.298,0.3007,0.3009,0.3011,0.3013,0.2977,0.2974,0.2971,0.2909,0,0,0.296,0.2959,0,0,0,0,0,0,0,0,0.3098,0.3091,0.3043,0.3042,0.3042,0.3003,0.3006,0.2957,0.3007,0.3021,0.3012,0.3014,0.2985,0.2981,0.2966,0.2907,0.2905,0.296,0.2958,0.2957,0.2956,0,0,0,0,0,0,0,0.3102,0.3094,0.3016,0.3042,0.3041,0.304,0.3035,0.2997,0.2993,0.302,0.3022,0.3014,0.2985,0.297,0.2966,0.2905,0.296,0.2957,0.2955,0.2954,0.2862,0.2862,0,0,0,0,0,0,0.3106,0.3097,0.3018,0.3015,0.3075,0.3036,0.3031,0.3014,0.2993,0.2991,0.3012,0.3015,0.2974,0.297,0.2965,0.2974,0.2957,0.2954,0.2952,0.2863,0.2862,0.2862,0,0,0,0,0,0,0.3108,0.3099,0.302,0.3055,0.3045,0.3032,0.3013,0.3012,0.3001,0.2987,0.2986,0.3003,0.2976,0.2969,0.2938,0.297,0.2952,0.2949,0.2863,0.2862,0.2862,0.2938,0,0,0,0,0,0,0.3111,0.3099,0.3088,0.3055,0.3043,0.2983,0.3011,0.3009,0.2992,0.2996,0.2978,0.2977,0.2977,0.2943,0.2935,0.2965,0.2946,0.2864,0.2863,0.2862,0.2936,0.294,0.2944,0,0,0,0,0,0.3115,0.3078,0.3088,0.3078,0.3027,0.2981,0.2975,0.2974,0.299,0.2974,0.2972,0.2978,0.2933,0.2939,0.2929,0.296,0.2864,0.2863,0.2862,0.2935,0.294,0.2944,0,0,0,0,0,0,0.3102,0.3077,0.3086,0.3041,0.3018,0.2986,0.2961,0.2966,0.2948,0.2957,0.2955,0.2951,0.2945,0.292,0.2926,0.2928,0.2905,0.2902,0.2964,0.2968,0.2972,0.2949,0.2943,0,0,0,0,0,0.3097,0.3072,0.3049,0.3011,0.2998,0.2982,0.2963,0.2967,0.2946,0.2941,0.2938,0.2931,0.2928,0.2923,0.2907,0.2885,0.2892,0.2901,0.2905,0.2908,0.288,0.2905,0.291,0.2859,0.2859,0.2859,0,0,0.3078,0.3062,0.3046,0.3008,0.2988,0.2964,0.2975,0.2943,0.2945,0.2936,0.2934,0.2936,0.2922,0.2924,0.2919,0.2911,0.2939,0.2907,0.2911,0.288,0.2905,0.291,0.2915,0.2858,0.2858,0.2858,0,0,0.3031,0.3014,0.2988,0.2967,0.2944,0.2939,0.2931,0.2911,0.2928,0.2916,0.2932,0.2941,0.2919,0.2933,0.2934,0.2932,0.2956,0.2939,0.2943,0.297,0.2975,0.2979,0.3058,0.3069,0.2944,0.2944,0.2944,0,0.3013,0.2971,0.2969,0.2941,0.2916,0.2929,0.2895,0.291,0.2894,0.2897,0.2924,0.292,0.2927,0.2932,0.2954,0.2945,0.2974,0.294,0.2978,0.2982,0.2985,0.3064,0.3075,0.2947,0.2947,0.2947,0.2946,0,0.2957,0.2921,0.2892,0.2874,0.2858,0.2815,0.284,0.2845,0.2875,0.2893,0.291,0.2932,0.2922,0.2956,0.296,0.2986,0.301,0.2987,0.2977,0.2996,0.3078,0.3088,0.2953,0.2951,0.295,0.2949,0,0,0.2895,0.2862,0.2848,0.282,0.2812,0.2779,0.2802,0.2801,0.281,0.2852,0.2864,0.2904,0.2921,0.2919,0.2947,0.2988,0.3083,0.3001,0.3001,0.3098,0.3187,0.3283,0.3303,0.3074,0.3074,0.3074,0.3261,0,0.284,0.2768,0.2782,0.2712,0.2664,0.2694,0.2707,0.2728,0.2772,0.2799,0.286,0.2883,0.291,0.2929,0.297,0.3048,0.31,0.3037,0.3134,0.3138,0.3235,0.3313,0.3287,0.3455,0.327,0.3272,0.3273,0,0.2773,0.2724,0.2656,0.261,0.2596,0.2586,0.2587,0.2604,0.2672,0.2715,0.2758,0.2812,0.289,0.2909,0.3046,0.3008,0.3085,0.3156,0.3164,0.3218,0.3249,0.339,0.3479,0.3313,0.3288,0.3287,0.3286,0,0.2698,0.2628,0.2569,0.2547,0.2522,0.2514,0.2514,0.2566,0.2589,0.2666,0.2706,0.2785,0.2851,0.2944,0.3107,0.3077,0.3277,0.325,0.3409,0.3419,0.3392,0.3399,0.3336,0.3319,0.3319,0.3318,0.3317,0,0.2618,0.2554,0.2525,0.248,0.2424,0.2436,0.2422,0.2453,0.2511,0.2545,0.2648,0.2717,0.2859,0.2999,0.3115,0.3328,0.3285,0.3427,0.3469,0.3426,0.3433,0.3281,0.3161,0.3325,0.3324,0.3322,0.3321,0,0.2549,0.2528,0.2448,0.2402,0.2391,0.2354,0.2365,0.2365,0.2433,0.249,0.2521,0.2685,0.2897,0.3068,0.3267,0.3361,0.3453,0.3605,0.3585,0.362,0.3612,0.3498,0.34,0.3311,0.3819,0.3822,0.3825,0,0.2502,0.2454,0.2395,0.2362,0.2343,0.2301,0.2293,0.2329,0.235,0.2483,0.2517,0.2732,0.2903,0.3271,0.3493,0.3751,0.3566,0.3853,0.3774,0.3625,0.3527,0.335,0.3266,0.3798,0.38,0.3802,0.3804,0,0.2399,0.24,0.2353,0.2296,0.2266,0.2229,0.2219,0.222,0.2289,0.2367,0.2506,0.2655,0.3046,0.3318,0.3672,0.3836,0.3657,0.3904,0.3721,0.3487,0.3311,0.3242,0.3691,0.3821,0.3819,0.3818,0.3817,0.3816,0.233,0.2303,0.2265,0.2217,0.2185,0.2147,0.2102,0.2138,0.2175,0.2266,0.2448,0.2668,0.3035,0.3556,0.3721,0.3915,0.3795,0.3864,0.3746,0.3587,0.3448,0.3978,0.4163,0.4163,0.4163,0.4163,0.4164,0,0.2182,0.2198,0.2173,0.2108,0.2052,0.2065,0.2042,0.201,0.204,0.2206,0.2342,0.2734,0.3068,0.3401,0.3755,0.3729,0.3597,0.3631,0.3305,0.3237,0.3706,0.3649,0.3763,0.3763,0.3763,0.3763,0.3763,0.3763,0.2106,0.2057,0.2079,0.1978,0.1943,0.1847,0.1818,0.1826,0.191,0.2093,0.2317,0.2527,0.2906,0.3215,0.3374,0.3397,0.308,0.3037,0.2907,0.3158,0.3166,0.3173,0.309,0.3085,0.3084,0.2392,0.2386,0.2381]},{"header":{"parameterUnit":"m.s-1","parameterCategory":2,"la1":30.2991,"la2":30.254,"lo1":-89.0895,"lo2":-89.0444,"dx":0.0017,"dy":0.0017,"nx":28,"ny":28,"refTime":"2023-02-12T09:00:00:Z","depth":"0","parameterNumber":3,"parameterNumberName":"V-component_of_CURRENTS"},"data":[0,0,0,0,0,0,0,0,0,0,0,0,0,0,0,0,0,0,0,0,0,0,0,0,0,0,0,0,0,0,0,0,0,0,0,0,0,0,0,0,0,0,0,0,0,0,0,0,0,0,0,0,0,0,0,0,0,0,-0.1439,-0.1439,0,-0.1529,-0.1531,-0.1533,-0.1671,-0.1673,-0.1674,-0.1675,-0.1977,-0.1983,-0.199,0,0,0,0,0,0,0,0,0,0,0,0,0,-0.1372,-0.1373,-0.1439,-0.1439,-0.1439,-0.1529,-0.1531,-0.1533,-0.1671,-0.1673,-0.1674,-0.1676,-0.1975,-0.1983,-0.1991,0,0,0,0,0,0,0,0,0,0,0,0,0,-0.1435,-0.1374,-0.1439,-0.1511,-0.1517,-0.1528,-0.1531,-0.1534,-0.167,-0.1673,-0.1675,-0.1677,-0.1972,-0.1982,-0.1992,-0.2008,0,0,-0.2022,-0.2026,0,0,0,0,0,0,0,0,-0.1432,-0.1439,-0.15,-0.1506,-0.1513,-0.1582,-0.1617,-0.1699,-0.167,-0.1623,-0.1676,-0.1678,-0.1856,-0.1875,-0.1899,-0.2022,-0.2035,-0.2023,-0.2029,-0.2033,-0.2036,0,0,0,0,0,0,0,-0.1427,-0.1436,-0.1485,-0.15,-0.1507,-0.1533,-0.1546,-0.1633,-0.1738,-0.1628,-0.1635,-0.1628,-0.1863,-0.1889,-0.1908,-0.204,-0.2023,-0.2031,-0.2038,-0.2041,-0.2205,-0.2204,0,0,0,0,0,0,-0.1393,-0.1431,-0.1482,-0.1487,-0.1465,-0.1532,-0.1547,-0.1566,-0.1733,-0.1755,-0.1626,-0.1634,-0.1871,-0.1896,-0.1919,-0.1988,-0.2033,-0.2042,-0.2048,-0.2207,-0.2205,-0.2203,0,0,0,0,0,0,-0.1392,-0.1398,-0.1478,-0.1451,-0.1462,-0.1529,-0.1551,-0.1566,-0.1587,-0.1727,-0.1757,-0.1628,-0.1874,-0.1905,-0.1989,-0.2,-0.2047,-0.2056,-0.2209,-0.2206,-0.2204,-0.2101,0,0,0,0,0,0,-0.139,-0.1398,-0.1386,-0.145,-0.1462,-0.1465,-0.1548,-0.1566,-0.1574,-0.1586,-0.1739,-0.1769,-0.1878,-0.1973,-0.1999,-0.2014,-0.2064,-0.2211,-0.2208,-0.2205,-0.2107,-0.2096,-0.2086,0,0,0,0,0,-0.1388,-0.1349,-0.1385,-0.139,-0.145,-0.1462,-0.1471,-0.1533,-0.1571,-0.1565,-0.1674,-0.1764,-0.1972,-0.1979,-0.201,-0.2029,-0.2212,-0.2209,-0.2205,-0.2111,-0.2098,-0.2086,0,0,0,0,0,0,-0.1282,-0.136,-0.1402,-0.1382,-0.1413,-0.1481,-0.1462,-0.1509,-0.1585,-0.1603,-0.1751,-0.1788,-0.1864,-0.194,-0.1944,-0.2059,-0.2104,-0.2106,-0.2022,-0.2011,-0.2,-0.1956,-0.2072,0,0,0,0,0,-0.1257,-0.1269,-0.1333,-0.1309,-0.1323,-0.1391,-0.1398,-0.1443,-0.1515,-0.155,-0.1665,-0.1775,-0.1869,-0.1933,-0.2022,-0.2086,-0.2088,-0.2111,-0.2101,-0.2092,-0.2072,-0.2071,-0.2058,-0.2191,-0.2191,-0.2191,0,0,-0.1198,-0.1243,-0.1243,-0.1289,-0.1323,-0.134,-0.1404,-0.14,-0.1438,-0.1572,-0.1656,-0.1742,-0.1872,-0.1951,-0.1992,-0.2024,-0.2045,-0.2087,-0.2079,-0.2064,-0.2066,-0.2053,-0.2041,-0.2189,-0.2189,-0.219,0,0,-0.1102,-0.1138,-0.1133,-0.1162,-0.1202,-0.1257,-0.1249,-0.1325,-0.1384,-0.1452,-0.1563,-0.1637,-0.1789,-0.1886,-0.1954,-0.1929,-0.1981,-0.196,-0.1897,-0.1896,-0.1885,-0.1876,-0.1817,-0.1803,-0.1967,-0.1967,-0.1967,0,-0.1028,-0.1048,-0.1117,-0.1126,-0.114,-0.1219,-0.1216,-0.1279,-0.1377,-0.1414,-0.1464,-0.1639,-0.1759,-0.1849,-0.1858,-0.1911,-0.1889,-0.1942,-0.1882,-0.1873,-0.1865,-0.1808,-0.1794,-0.1962,-0.1962,-0.1963,-0.1963,0,-0.0964,-0.0967,-0.095,-0.1023,-0.1047,-0.1034,-0.114,-0.118,-0.1257,-0.1323,-0.1406,-0.1544,-0.1641,-0.1699,-0.1791,-0.1803,-0.1794,-0.1859,-0.1912,-0.1845,-0.1789,-0.1776,-0.1954,-0.1956,-0.1957,-0.1959,0,0,-0.0836,-0.0899,-0.0895,-0.0909,-0.0993,-0.1001,-0.1064,-0.1133,-0.1145,-0.1257,-0.1271,-0.1451,-0.1491,-0.1565,-0.1673,-0.1699,-0.1638,-0.1751,-0.1753,-0.1687,-0.1574,-0.1478,-0.1455,-0.1689,-0.1688,-0.1686,-0.154,0,-0.0766,-0.076,-0.0826,-0.081,-0.0814,-0.0911,-0.0955,-0.1029,-0.1103,-0.1133,-0.1262,-0.1308,-0.1454,-0.1472,-0.1527,-0.1606,-0.1605,-0.1667,-0.1652,-0.165,-0.1571,-0.1439,-0.1399,-0.1258,-0.1528,-0.1526,-0.1525,0,-0.0701,-0.0708,-0.0689,-0.0723,-0.0733,-0.074,-0.0802,-0.0846,-0.0923,-0.097,-0.1032,-0.1113,-0.1181,-0.1294,-0.1377,-0.1402,-0.1469,-0.1529,-0.1526,-0.1464,-0.1531,-0.1378,-0.1226,-0.1396,-0.1506,-0.1507,-0.1509,0,-0.0604,-0.0611,-0.0595,-0.0606,-0.0662,-0.0668,-0.0698,-0.0778,-0.0782,-0.0826,-0.0784,-0.0912,-0.0905,-0.1035,-0.1176,-0.1262,-0.1213,-0.1355,-0.132,-0.1313,-0.1289,-0.1281,-0.1297,-0.1376,-0.1376,-0.1376,-0.1377,0,-0.0521,-0.0497,-0.0534,-0.0519,-0.0482,-0.0557,-0.0517,-0.0571,-0.0575,-0.0513,-0.066,-0.06,-0.0834,-0.0858,-0.1046,-0.1089,-0.1104,-0.1248,-0.1258,-0.1245,-0.1236,-0.1395,-0.1494,-0.1371,-0.1372,-0.1373,-0.1374,0,-0.0423,-0.0451,-0.0416,-0.0437,-0.0434,-0.0403,-0.0381,-0.0341,-0.0354,-0.0258,-0.0241,-0.0305,-0.0325,-0.0526,-0.0677,-0.085,-0.0993,-0.0977,-0.0906,-0.091,-0.1075,-0.1168,-0.1092,-0.1113,-0.0916,-0.0912,-0.0909,0,-0.038,-0.0349,-0.0335,-0.0302,-0.0301,-0.0257,-0.022,-0.0234,-0.0168,-0.0067,0.0015,0.0045,0.0071,-0.0071,-0.0355,-0.0564,-0.0787,-0.0675,-0.0867,-0.1009,-0.1124,-0.1187,-0.1219,-0.0781,-0.0777,-0.0775,-0.0772,0,-0.0274,-0.0267,-0.024,-0.0175,-0.012,-0.0055,0.0017,0.0111,0.0143,0.0257,0.0426,0.0479,0.0369,0.0203,-0.0064,-0.027,-0.0731,-0.0617,-0.0809,-0.1016,-0.1042,-0.1092,-0.0924,-0.0745,-0.0748,-0.075,-0.0751,-0.0752,-0.019,-0.0139,-0.0098,-0.0036,0.0036,0.0155,0.0247,0.0355,0.0517,0.0707,0.074,0.0855,0.0599,0.0243,-0.0007,-0.0465,-0.05,-0.068,-0.0771,-0.0815,-0.086,-0.0576,-0.0396,-0.0396,-0.0397,-0.0398,-0.0398,0,-0.0082,-0.0033,0.0037,0.0129,0.0242,0.0242,0.0408,0.0517,0.0744,0.0905,0.106,0.1021,0.0708,0.0292,-0.0277,-0.0601,-0.0767,-0.0796,-0.0954,-0.0977,-0.0766,-0.0793,-0.0636,-0.0636,-0.0636,-0.0636,-0.0636,-0.0635,-0.0021,0.0073,0.0104,0.0298,0.0375,0.0536,0.0645,0.0802,0.0927,0.1149,0.1231,0.1269,0.097,0.0022,-0.0707,-0.09,-0.1133,-0.1116,-0.1236,-0.122,-0.1221,-0.1222,-0.1274,-0.122,-0.1221,-0.1422,-0.1424,-0.1426]}],[{"header":{"parameterUnit":"m.s-1","parameterCategory":2,"la1":30.2991,"la2":30.254,"lo1":-89.0895,"lo2":-89.0444,"dx":0.0017,"dy":0.0017,"nx":28,"ny":28,"refTime":"2023-02-12T09:00:00:Z","depth":"2","parameterNumber":2,"parameterNumberName":"U-component_of_CURRENTS"},"data":[0,0,0,0,0,0,0,0,0,0,0,0,0,0,0,0,0,0,0,0,0,0,0,0,0,0,0,0,0,0,0,0,0,0,0,0,0,0,0,0,0,0,0,0,0,0,0,0,0,0,0,0,0,0,0,0,0,0,0.2157,0.2155,0,0.2091,0.2092,0.2093,0.214,0.214,0.214,0.214,0.2053,0.205,0.2048,0,0,0,0,0,0,0,0,0,0,0,0,0,0.2204,0.2206,0.2157,0.2154,0.2152,0.2091,0.2092,0.2093,0.214,0.214,0.214,0.214,0.2054,0.2051,0.2048,0,0,0,0,0,0,0,0,0,0,0,0,0,0.2187,0.2206,0.2158,0.2151,0.2148,0.209,0.2092,0.2094,0.214,0.214,0.214,0.214,0.2054,0.2051,0.2048,0.2025,0,0,0.2037,0.2035,0,0,0,0,0,0,0,0,0.2188,0.2188,0.2155,0.2151,0.2147,0.2104,0.2075,0.2062,0.214,0.2167,0.214,0.214,0.2053,0.205,0.207,0.2021,0.2017,0.2037,0.2034,0.2033,0.2032,0,0,0,0,0,0,0,0.219,0.219,0.2154,0.2151,0.2146,0.2108,0.211,0.2074,0.2128,0.2164,0.2162,0.2119,0.2054,0.2073,0.2067,0.2016,0.2037,0.2033,0.2031,0.203,0.1994,0.1995,0,0,0,0,0,0,0.2159,0.2193,0.2155,0.215,0.2143,0.2106,0.2108,0.2136,0.2128,0.2121,0.2119,0.212,0.2079,0.2071,0.2064,0.2078,0.2033,0.203,0.2028,0.1993,0.1994,0.1996,0,0,0,0,0,0,0.2162,0.216,0.2158,0.2147,0.2141,0.2104,0.2135,0.2134,0.2134,0.2089,0.2087,0.2114,0.2079,0.2069,0.2031,0.2073,0.2028,0.2025,0.1992,0.1993,0.1995,0.2078,0,0,0,0,0,0,0.2165,0.2164,0.2188,0.2147,0.214,0.207,0.2132,0.2132,0.2097,0.21,0.2084,0.2078,0.2078,0.2037,0.2028,0.2067,0.2022,0.199,0.1992,0.1994,0.2074,0.2083,0.209,0,0,0,0,0,0.2169,0.2151,0.2192,0.2185,0.2174,0.2064,0.2058,0.2045,0.2096,0.206,0.2091,0.2078,0.2046,0.2033,0.2023,0.2063,0.1989,0.1992,0.1994,0.2071,0.2081,0.209,0,0,0,0,0,0,0.2151,0.2151,0.2195,0.2178,0.2112,0.2062,0.2042,0.2034,0.2038,0.2091,0.2067,0.206,0.2056,0.2032,0.2019,0.2061,0.2025,0.2025,0.2086,0.2096,0.2104,0.2091,0.2019,0,0,0,0,0,0.217,0.2194,0.214,0.2129,0.2114,0.2095,0.2061,0.2062,0.2038,0.2045,0.2022,0.2043,0.2062,0.2052,0.2048,0.2041,0.2061,0.2068,0.2076,0.2083,0.2067,0.2133,0.2146,0.2004,0.2004,0.2004,0,0,0.2158,0.2159,0.2173,0.2131,0.2127,0.2094,0.2082,0.2042,0.2043,0.2032,0.2045,0.2053,0.2064,0.2086,0.2083,0.2067,0.2145,0.2086,0.2092,0.2071,0.2137,0.2151,0.2164,0.2006,0.2006,0.2005,0,0,0.2116,0.2165,0.2171,0.2146,0.2114,0.2089,0.2065,0.2025,0.2046,0.2042,0.2072,0.2084,0.208,0.2102,0.2121,0.2153,0.2182,0.2171,0.2201,0.2268,0.228,0.2291,0.2386,0.2404,0.2178,0.2178,0.2179,0,0.2135,0.2123,0.2131,0.2131,0.2113,0.2085,0.2067,0.2074,0.2023,0.2041,0.2055,0.2105,0.2101,0.2148,0.2184,0.2172,0.2228,0.217,0.228,0.2291,0.23,0.2394,0.2414,0.2183,0.2182,0.2182,0.2181,0,0.2108,0.21,0.2088,0.2122,0.2097,0.2061,0.2065,0.2057,0.2091,0.2099,0.214,0.2156,0.2178,0.2202,0.2214,0.2283,0.231,0.2284,0.2259,0.232,0.2415,0.2434,0.2189,0.2187,0.2186,0.2185,0,0,0.2129,0.2093,0.2092,0.2081,0.2105,0.2052,0.2102,0.208,0.2113,0.213,0.2174,0.2226,0.224,0.2258,0.2272,0.2328,0.2471,0.2347,0.2349,0.2448,0.2663,0.2592,0.2606,0.2484,0.2486,0.2488,0.2721,0,0.2107,0.2084,0.2084,0.2032,0.2002,0.204,0.2067,0.209,0.2128,0.2158,0.2227,0.2272,0.2265,0.2308,0.2362,0.2439,0.2516,0.2412,0.258,0.2585,0.252,0.2622,0.2208,0.2371,0.2739,0.2742,0.2744,0,0.2073,0.2044,0.2023,0.1977,0.1983,0.1976,0.2023,0.2038,0.2123,0.2186,0.2254,0.2304,0.2396,0.2387,0.2553,0.25,0.2585,0.2643,0.2654,0.2557,0.2546,0.2358,0.2391,0.2775,0.2773,0.2771,0.2769,0,0.2028,0.1978,0.1951,0.1954,0.1935,0.1955,0.1959,0.2046,0.2096,0.2197,0.2277,0.237,0.2462,0.2561,0.269,0.2651,0.2886,0.2844,0.2859,0.2857,0.2514,0.2477,0.2961,0.2961,0.296,0.296,0.2959,0,0.1979,0.1928,0.1919,0.1893,0.1888,0.1911,0.1948,0.1991,0.2097,0.2173,0.2272,0.2373,0.2516,0.2663,0.2745,0.2877,0.2942,0.2883,0.2909,0.2537,0.2501,0.2831,0.2812,0.2968,0.2966,0.2965,0.2963,0,0.193,0.1916,0.1852,0.184,0.1855,0.1859,0.1945,0.1971,0.2081,0.2198,0.225,0.2432,0.2619,0.2756,0.2955,0.2957,0.3076,0.3101,0.2675,0.2644,0.2996,0.2979,0.3148,0.3147,0.3147,0.3146,0.3146,0,0.1885,0.1852,0.1852,0.1835,0.1827,0.1852,0.1895,0.1979,0.2034,0.2228,0.2289,0.2505,0.2637,0.2897,0.2888,0.3011,0.3138,0.2758,0.2572,0.3005,0.3015,0.2999,0.2983,0.2185,0.2177,0.217,0.2165,0,0.1767,0.1802,0.1791,0.1802,0.1804,0.1841,0.1897,0.1944,0.206,0.217,0.2328,0.244,0.2605,0.2528,0.2666,0.2671,0.2691,0.2628,0.3198,0.2194,0.2113,0.2118,0.2131,0.2105,0.2111,0.2115,0.2119,0.2121,0.1697,0.1692,0.1699,0.1724,0.177,0.1808,0.1818,0.1889,0.1977,0.2078,0.2241,0.2244,0.2248,0.2201,0.2253,0.2233,0.2391,0.2267,0.2281,0.2303,0.2142,0.2063,0.2019,0.2024,0.2029,0.2033,0.2036,0,0.1495,0.1559,0.1589,0.1611,0.168,0.174,0.1803,0.1792,0.1858,0.1889,0.1987,0.1721,0.1674,0.1737,0.155,0.1627,0.1558,0.1638,0.1463,0.1515,0.1564,0.1363,0.1036,0.1035,0.1035,0.1035,0,0,0.1344,0.1324,0.138,0.1472,0.1571,0.1615,0.1643,0.1645,0.1618,0.1511,0.1387,0.1489,0.1493,0.1193,0.1201,0.1089,0.1313,0.1052,0.18,0.1627,0.1677,0.1823,0.1559,0,0,0,0,0]},{"header":{"parameterUnit":"m.s-1","parameterCategory":2,"la1":30.2991,"la2":30.254,"lo1":-89.0895,"lo2":-89.0444,"dx":0.0017,"dy":0.0017,"nx":28,"ny":28,"refTime":"2023-02-12T09:00:00:Z","depth":"2","parameterNumber":3,"parameterNumberName":"V-component_of_CURRENTS"},"data":[0,0,0,0,0,0,0,0,0,0,0,0,0,0,0,0,0,0,0,0,0,0,0,0,0,0,0,0,0,0,0,0,0,0,0,0,0,0,0,0,0,0,0,0,0,0,0,0,0,0,0,0,0,0,0,0,0,0,-0.0182,-0.0179,0,-0.0233,-0.0236,-0.024,-0.0394,-0.0394,-0.0394,-0.0394,-0.0573,-0.0578,-0.0583,0,0,0,0,0,0,0,0,0,0,0,0,0,-0.0077,-0.0082,-0.0182,-0.0179,-0.0176,-0.0232,-0.0237,-0.0241,-0.0394,-0.0394,-0.0394,-0.0394,-0.0572,-0.0577,-0.0583,0,0,0,0,0,0,0,0,0,0,0,0,0,-0.0161,-0.0084,-0.0182,-0.0232,-0.0234,-0.0231,-0.0237,-0.0242,-0.0394,-0.0394,-0.0394,-0.0394,-0.057,-0.0577,-0.0584,-0.063,0,0,-0.0606,-0.0609,0,0,0,0,0,0,0,0,-0.0156,-0.017,-0.0227,-0.0228,-0.023,-0.0274,-0.0263,-0.0365,-0.0394,-0.0373,-0.0394,-0.0394,-0.0461,-0.0477,-0.0538,-0.0639,-0.0646,-0.0607,-0.0611,-0.0614,-0.0616,0,0,0,0,0,0,0,-0.015,-0.0166,-0.024,-0.0223,-0.0225,-0.02,-0.0218,-0.0285,-0.0448,-0.0375,-0.0377,-0.0323,-0.0468,-0.0531,-0.0543,-0.0649,-0.0607,-0.0613,-0.0617,-0.062,-0.0832,-0.0834,0,0,0,0,0,0,-0.0077,-0.0163,-0.0238,-0.0238,-0.015,-0.02,-0.0221,-0.0291,-0.0445,-0.0456,-0.0322,-0.0329,-0.0519,-0.0535,-0.055,-0.0624,-0.0614,-0.0621,-0.0625,-0.0831,-0.0833,-0.0834,0,0,0,0,0,0,-0.0077,-0.0089,-0.0235,-0.0163,-0.0175,-0.0199,-0.0277,-0.0291,-0.0321,-0.0396,-0.0419,-0.0328,-0.0519,-0.054,-0.0614,-0.0631,-0.0624,-0.0631,-0.083,-0.0832,-0.0833,-0.0765,0,0,0,0,0,0,-0.0077,-0.0093,-0.0137,-0.0163,-0.0175,-0.0168,-0.0273,-0.0291,-0.0271,-0.0281,-0.0409,-0.0428,-0.0521,-0.0602,-0.0621,-0.0641,-0.0637,-0.0828,-0.083,-0.0833,-0.0766,-0.0764,-0.0763,0,0,0,0,0,-0.0075,-0.0082,-0.0144,-0.0148,-0.0236,-0.0159,-0.0167,-0.0206,-0.0269,-0.0249,-0.0385,-0.0423,-0.0631,-0.0609,-0.063,-0.0653,-0.0827,-0.083,-0.0833,-0.0766,-0.0765,-0.0763,0,0,0,0,0,0,-0.0037,-0.0096,-0.0164,-0.0193,-0.0152,-0.0169,-0.0167,-0.0178,-0.0276,-0.036,-0.0436,-0.0463,-0.0541,-0.0599,-0.0572,-0.0724,-0.0736,-0.0743,-0.0678,-0.0678,-0.0676,-0.0647,-0.0643,0,0,0,0,0,-0.0053,-0.0111,-0.0105,-0.0124,-0.0126,-0.0158,-0.0141,-0.0185,-0.0238,-0.0284,-0.0347,-0.0473,-0.0577,-0.0621,-0.0718,-0.0785,-0.0807,-0.0816,-0.0815,-0.0813,-0.0806,-0.0867,-0.0869,-0.0844,-0.0844,-0.0843,0,0,-0.0041,-0.0071,-0.0108,-0.012,-0.0154,-0.0155,-0.0161,-0.0162,-0.0194,-0.0291,-0.0386,-0.0464,-0.0593,-0.0695,-0.0733,-0.0739,-0.0826,-0.0817,-0.0814,-0.0808,-0.087,-0.0872,-0.0874,-0.0846,-0.0845,-0.0845,0,0,-0.0003,-0.0093,-0.013,-0.0128,-0.0136,-0.0145,-0.0118,-0.0146,-0.0204,-0.0282,-0.0381,-0.0438,-0.0589,-0.0661,-0.0732,-0.0766,-0.0816,-0.0813,-0.0786,-0.0845,-0.0847,-0.0849,-0.084,-0.0842,-0.0814,-0.0814,-0.0814,0,-0.0015,-0.0066,-0.0096,-0.0125,-0.0129,-0.0128,-0.0152,-0.0193,-0.0233,-0.0275,-0.0313,-0.0506,-0.058,-0.0683,-0.0718,-0.0758,-0.0794,-0.0777,-0.084,-0.0843,-0.0846,-0.0837,-0.084,-0.0811,-0.0811,-0.0811,-0.0812,0,-0.0019,-0.006,-0.0063,-0.0151,-0.0145,-0.0151,-0.0192,-0.0211,-0.0275,-0.0312,-0.0406,-0.0506,-0.0602,-0.0634,-0.0708,-0.0763,-0.0778,-0.0825,-0.0831,-0.0843,-0.0834,-0.0838,-0.0807,-0.0808,-0.0809,-0.0809,0,0,-0.0052,-0.0082,-0.0091,-0.0112,-0.0189,-0.0157,-0.0242,-0.0258,-0.028,-0.0363,-0.0388,-0.0545,-0.0561,-0.0636,-0.0688,-0.0729,-0.076,-0.0793,-0.0798,-0.076,-0.0862,-0.0869,-0.0874,-0.0841,-0.0843,-0.0844,-0.0831,0,-0.0061,-0.0101,-0.0125,-0.0129,-0.0146,-0.0204,-0.0236,-0.0288,-0.0334,-0.0342,-0.045,-0.05,-0.0576,-0.0607,-0.0671,-0.0738,-0.0777,-0.0757,-0.0877,-0.0879,-0.0866,-0.0882,-0.0746,-0.0726,-0.0835,-0.0836,-0.0836,0,-0.0067,-0.0081,-0.0126,-0.0119,-0.014,-0.0145,-0.0195,-0.022,-0.0275,-0.0331,-0.0403,-0.046,-0.0522,-0.0584,-0.071,-0.0708,-0.079,-0.0833,-0.0836,-0.0871,-0.0896,-0.0744,-0.073,-0.0843,-0.0843,-0.0842,-0.0842,0,-0.0037,-0.0055,-0.0079,-0.0104,-0.0124,-0.0154,-0.0156,-0.022,-0.0228,-0.028,-0.0279,-0.0402,-0.0413,-0.0569,-0.0673,-0.0718,-0.0784,-0.0856,-0.0924,-0.0922,-0.0841,-0.0832,-0.0954,-0.0954,-0.0954,-0.0954,-0.0954,0,-0.0026,-0.0017,-0.005,-0.0061,-0.0056,-0.0107,-0.0099,-0.0128,-0.0149,-0.0109,-0.0236,-0.0216,-0.042,-0.0485,-0.0639,-0.0769,-0.0769,-0.091,-0.0934,-0.0812,-0.08,-0.0945,-0.0944,-0.0953,-0.0953,-0.0953,-0.0954,0,0.0015,-0.0016,-0.0001,-0.0031,-0.0034,-0.0033,-0.0034,-0.0006,-0.0035,0.002,0.0013,-0.0065,-0.0165,-0.0336,-0.0519,-0.0673,-0.0819,-0.0865,-0.067,-0.0675,-0.0926,-0.0922,-0.097,-0.097,-0.097,-0.0971,-0.0971,0,0.0031,0.0036,0.0017,0.0036,0.0029,0.0035,0.0047,0.0031,0.0081,0.0132,0.0183,0.0116,0.0033,-0.0219,-0.0432,-0.0678,-0.0764,-0.0734,-0.0822,-0.0916,-0.0935,-0.093,-0.0926,-0.0656,-0.0654,-0.0652,-0.065,0,0.0104,0.0084,0.0084,0.0086,0.0113,0.0153,0.0192,0.025,0.0284,0.0321,0.039,0.0326,0.0132,-0.0078,-0.0392,-0.0543,-0.0703,-0.071,-0.0848,-0.0696,-0.0628,-0.0644,-0.0648,-0.0633,-0.0635,-0.0636,-0.0637,-0.0638,0.0159,0.0175,0.0166,0.0169,0.0206,0.0285,0.0345,0.0401,0.0479,0.0549,0.0512,0.0413,0.0212,-0.0211,-0.0385,-0.0543,-0.0618,-0.0714,-0.0717,-0.0722,-0.0712,-0.0651,-0.0654,-0.0655,-0.0657,-0.0658,-0.0659,0,0.0262,0.0254,0.0265,0.0292,0.0343,0.0344,0.0459,0.05,0.06,0.0611,0.0588,0.0346,0.0123,-0.0097,-0.0289,-0.0498,-0.0489,-0.0564,-0.049,-0.0503,-0.0516,-0.0495,-0.0379,-0.038,-0.038,-0.0381,0,0,0.0333,0.0357,0.0343,0.0419,0.0446,0.0558,0.0639,0.0663,0.067,0.0611,0.0549,0.0391,0.0146,0.0019,-0.0162,-0.0246,-0.0346,-0.027,-0.0461,-0.0356,-0.0368,-0.0554,-0.053,0,0,0,0,0]}],[{"header":{"parameterUnit":"m.s-1","parameterCategory":2,"la1":30.2991,"la2":30.254,"lo1":-89.0895,"lo2":-89.0444,"dx":0.0017,"dy":0.0017,"nx":28,"ny":28,"refTime":"2023-02-12T09:00:00:Z","depth":"4","parameterNumber":2,"parameterNumberName":"U-component_of_CURRENTS"},"data":[0,0,0,0,0,0,0,0,0,0,0,0,0,0,0,0,0,0,0,0,0,0,0,0,0,0,0,0,0,0,0,0,0,0,0,0,0,0,0,0,0,0,0,0,0,0,0,0,0,0,0,0,0,0,0,0,0,0,-0.0496,-0.0497,0,-0.0552,-0.0553,-0.0553,-0.0555,-0.0555,-0.0555,-0.0555,-0.0671,-0.0674,-0.0677,0,0,0,0,0,0,0,0,0,0,0,0,0,-0.0412,-0.0413,-0.0496,-0.0498,-0.0499,-0.0552,-0.0553,-0.0553,-0.0555,-0.0555,-0.0555,-0.0555,-0.067,-0.0674,-0.0678,0,0,0,0,0,0,0,0,0,0,0,0,0,-0.045,-0.0413,-0.0496,-0.0511,-0.0514,-0.0552,-0.0553,-0.0553,-0.0555,-0.0555,-0.0555,-0.0555,-0.0669,-0.0673,-0.0678,-0.0709,0,0,-0.0693,-0.0695,0,0,0,0,0,0,0,0,-0.0448,-0.0453,-0.0508,-0.051,-0.0513,-0.0552,-0.0566,-0.061,-0.0555,-0.0533,-0.0555,-0.0555,-0.0641,-0.0648,-0.0649,-0.0715,-0.072,-0.0693,-0.0696,-0.0698,-0.0699,0,0,0,0,0,0,0,-0.0445,-0.045,-0.0512,-0.0509,-0.0513,-0.0523,-0.0528,-0.0574,-0.0583,-0.0535,-0.0537,-0.0553,-0.0642,-0.0644,-0.0652,-0.0721,-0.0693,-0.0697,-0.07,-0.0702,-0.0871,-0.0872,0,0,0,0,0,0,-0.0451,-0.0448,-0.051,-0.0514,-0.0487,-0.0525,-0.053,-0.0535,-0.0581,-0.059,-0.0553,-0.0553,-0.0636,-0.0646,-0.0656,-0.0701,-0.0698,-0.0702,-0.0705,-0.0869,-0.0871,-0.0873,0,0,0,0,0,0,-0.0449,-0.0455,-0.0508,-0.0488,-0.0496,-0.0527,-0.0532,-0.0536,-0.0554,-0.0596,-0.0604,-0.057,-0.0637,-0.065,-0.0724,-0.0705,-0.0704,-0.0709,-0.0867,-0.087,-0.0872,-0.0788,0,0,0,0,0,0,-0.0446,-0.0454,-0.0471,-0.0488,-0.0498,-0.0546,-0.0533,-0.0537,-0.0567,-0.0567,-0.0614,-0.0623,-0.0637,-0.0717,-0.0729,-0.0712,-0.0712,-0.0865,-0.0868,-0.0871,-0.0788,-0.0787,-0.0786,0,0,0,0,0,-0.0442,-0.0463,-0.0471,-0.048,-0.0516,-0.0548,-0.0554,-0.0571,-0.0568,-0.0583,-0.0622,-0.0622,-0.0744,-0.0723,-0.0736,-0.072,-0.0863,-0.0867,-0.0871,-0.0789,-0.0787,-0.0786,0,0,0,0,0,0,-0.0436,-0.0466,-0.0476,-0.0505,-0.0534,-0.0551,-0.0579,-0.0582,-0.062,-0.063,-0.0653,-0.0667,-0.0724,-0.0754,-0.0729,-0.0785,-0.08,-0.0807,-0.0734,-0.0732,-0.0731,-0.0661,-0.0716,0,0,0,0,0,-0.0444,-0.0474,-0.0496,-0.0529,-0.0542,-0.0562,-0.0581,-0.0591,-0.0625,-0.064,-0.0655,-0.0697,-0.0747,-0.0767,-0.0817,-0.0851,-0.0862,-0.0852,-0.085,-0.0848,-0.0806,-0.086,-0.0857,-0.0885,-0.0885,-0.0885,0,0,-0.0458,-0.048,-0.0499,-0.0533,-0.0555,-0.0579,-0.0572,-0.061,-0.0627,-0.0651,-0.0676,-0.0705,-0.0765,-0.0798,-0.0823,-0.0817,-0.0847,-0.0853,-0.085,-0.0808,-0.0863,-0.0859,-0.0856,-0.0887,-0.0887,-0.0887,0,0,-0.0494,-0.0512,-0.0545,-0.0567,-0.0609,-0.0614,-0.0627,-0.0639,-0.0644,-0.0667,-0.07,-0.073,-0.0769,-0.0807,-0.0835,-0.087,-0.0852,-0.0871,-0.0783,-0.0837,-0.0833,-0.083,-0.0823,-0.082,-0.0852,-0.0851,-0.0851,0,-0.0504,-0.0544,-0.0562,-0.0593,-0.0609,-0.0629,-0.0649,-0.0667,-0.0695,-0.0694,-0.0671,-0.0727,-0.0773,-0.0832,-0.0801,-0.0862,-0.0849,-0.0775,-0.0829,-0.0826,-0.0825,-0.0818,-0.0816,-0.0848,-0.0848,-0.0849,-0.0849,0,-0.0559,-0.059,-0.0613,-0.0649,-0.0665,-0.0696,-0.0709,-0.0713,-0.0691,-0.0688,-0.0709,-0.0745,-0.0735,-0.0779,-0.0771,-0.0784,-0.0764,-0.0831,-0.0814,-0.0815,-0.081,-0.0809,-0.0843,-0.0844,-0.0845,-0.0846,0,0,-0.0556,-0.0633,-0.0641,-0.0658,-0.0691,-0.0704,-0.0724,-0.0734,-0.0728,-0.072,-0.0695,-0.0733,-0.0668,-0.0694,-0.0711,-0.0742,-0.0703,-0.0719,-0.0724,-0.0675,-0.0739,-0.0617,-0.0605,-0.075,-0.075,-0.075,-0.0732,0,-0.0585,-0.0658,-0.0672,-0.0713,-0.0737,-0.0735,-0.0736,-0.0747,-0.0727,-0.0707,-0.0729,-0.0688,-0.0667,-0.0594,-0.0628,-0.0694,-0.0696,-0.0697,-0.0775,-0.0776,-0.064,-0.06,-0.075,-0.0731,-0.0731,-0.0731,-0.073,0,-0.0615,-0.0658,-0.0711,-0.0723,-0.0726,-0.0712,-0.0689,-0.0683,-0.0678,-0.0638,-0.059,-0.0574,-0.0547,-0.0543,-0.0598,-0.0573,-0.0594,-0.0671,-0.0675,-0.0577,-0.0652,-0.0742,-0.0729,-0.0729,-0.0729,-0.0729,-0.0729,0,-0.0619,-0.0666,-0.0707,-0.0722,-0.0744,-0.0701,-0.0648,-0.0633,-0.061,-0.0517,-0.0472,-0.0469,-0.0404,-0.0466,-0.0515,-0.051,-0.0635,-0.0684,-0.062,-0.0612,-0.0764,-0.0768,-0.0728,-0.0728,-0.0728,-0.0728,-0.0728,0,-0.0619,-0.0669,-0.0685,-0.0717,-0.0677,-0.0645,-0.0574,-0.0526,-0.0462,-0.0441,-0.0358,-0.0363,-0.0365,-0.0435,-0.0502,-0.0523,-0.0605,-0.0555,-0.059,-0.0731,-0.0732,-0.0762,-0.0766,-0.0727,-0.0727,-0.0727,-0.0727,0,-0.0631,-0.0677,-0.0742,-0.0736,-0.0689,-0.0633,-0.0491,-0.0457,-0.0345,-0.0307,-0.0233,-0.0232,-0.023,-0.0317,-0.0437,-0.046,-0.0554,-0.0564,-0.0657,-0.0707,-0.0484,-0.0485,-0.0414,-0.0409,-0.0405,-0.0402,-0.0399,0,-0.0643,-0.0688,-0.0747,-0.0728,-0.0696,-0.058,-0.0509,-0.0383,-0.0361,-0.0282,-0.0306,-0.0223,-0.0226,-0.0304,-0.0389,-0.0444,-0.0478,-0.0475,-0.0473,-0.0405,-0.0448,-0.0456,-0.0462,-0.0393,-0.0392,-0.0391,-0.039,0,-0.0668,-0.0735,-0.079,-0.0753,-0.068,-0.0609,-0.0485,-0.0442,-0.0328,-0.0295,-0.0265,-0.0206,-0.0223,-0.0257,-0.0253,-0.0358,-0.0442,-0.0434,-0.0442,-0.0439,-0.038,-0.0428,-0.0439,-0.0376,-0.0378,-0.0379,-0.038,0,-0.0705,-0.0744,-0.0814,-0.0764,-0.07,-0.0602,-0.0533,-0.0451,-0.0379,-0.0281,-0.0319,-0.0272,-0.0261,-0.0221,-0.0312,-0.027,-0.0247,-0.0248,-0.0266,-0.0281,-0.0242,-0.0148,-0.0059,0,0,0,0,0,-0.0693,-0.0757,-0.077,-0.0733,-0.0678,-0.0612,-0.0534,-0.0482,-0.0404,-0.0357,-0.0289,-0.029,-0.0203,-0.025,-0.0171,-0.0255,-0.0274,-0.0164,-0.0292,-0.03,-0.0316,-0.028,0,0,0,0,0,0,-0.0703,-0.077,-0.0802,-0.071,-0.0643,-0.0552,-0.0488,-0.0436,-0.0413,-0.0345,-0.0336,-0.0264,-0.0248,-0.0236,-0.0171,-0.0166,-0.023,-0.0143,-0.014,-0.0291,-0.0305,-0.0318,-0.0287,0,0,0,0,0]},{"header":{"parameterUnit":"m.s-1","parameterCategory":2,"la1":30.2991,"la2":30.254,"lo1":-89.0895,"lo2":-89.0444,"dx":0.0017,"dy":0.0017,"nx":28,"ny":28,"refTime":"2023-02-12T09:00:00:Z","depth":"4","parameterNumber":3,"parameterNumberName":"V-component_of_CURRENTS"},"data":[0,0,0,0,0,0,0,0,0,0,0,0,0,0,0,0,0,0,0,0,0,0,0,0,0,0,0,0,0,0,0,0,0,0,0,0,0,0,0,0,0,0,0,0,0,0,0,0,0,0,0,0,0,0,0,0,0,0,0.0362,0.0363,0,0.0376,0.0376,0.0375,0.0481,0.0485,0.0488,0.049,0.0567,0.0566,0.0566,0,0,0,0,0,0,0,0,0,0,0,0,0,0.0362,0.0361,0.0362,0.0363,0.0364,0.0376,0.0376,0.0375,0.0481,0.0485,0.0488,0.0492,0.0567,0.0566,0.0565,0,0,0,0,0,0,0,0,0,0,0,0,0,0.0363,0.0361,0.0362,0.0421,0.0427,0.0376,0.0376,0.0375,0.048,0.0485,0.0489,0.0493,0.0568,0.0566,0.0565,0.0468,0,0,0.0562,0.0561,0,0,0,0,0,0,0,0,0.0363,0.0363,0.0412,0.0417,0.0423,0.0435,0.0404,0.0411,0.0479,0.0455,0.049,0.0496,0.0528,0.0531,0.0516,0.0471,0.0475,0.0562,0.0561,0.056,0.056,0,0,0,0,0,0,0,0.0363,0.0362,0.0363,0.0412,0.0419,0.0424,0.0429,0.0405,0.0464,0.0458,0.0466,0.0473,0.0532,0.0517,0.0519,0.0476,0.0562,0.0561,0.056,0.056,0.0507,0.0507,0,0,0,0,0,0,0.0368,0.0362,0.0363,0.0364,0.0409,0.0421,0.0427,0.0423,0.0463,0.0474,0.0469,0.0478,0.0516,0.052,0.0522,0.0551,0.0561,0.0559,0.0559,0.0508,0.0507,0.0506,0,0,0,0,0,0,0.0368,0.0367,0.0363,0.0368,0.0369,0.0417,0.0412,0.0421,0.0502,0.0472,0.0485,0.0552,0.052,0.0524,0.0553,0.0551,0.0559,0.0558,0.0509,0.0508,0.0507,0.0519,0,0,0,0,0,0,0.0367,0.0367,0.0386,0.0368,0.0369,0.0374,0.0408,0.0418,0.0495,0.0509,0.0545,0.0551,0.0524,0.0555,0.0552,0.0549,0.0557,0.051,0.0508,0.0507,0.0519,0.0518,0.0518,0,0,0,0,0,0.0367,0.0366,0.0386,0.0388,0.0386,0.0375,0.0376,0.0422,0.0496,0.0516,0.0546,0.0555,0.0545,0.0554,0.055,0.0547,0.051,0.0509,0.0507,0.052,0.0519,0.0518,0,0,0,0,0,0,0.0374,0.0376,0.0399,0.04,0.0411,0.0396,0.0441,0.0469,0.0506,0.0569,0.0548,0.0553,0.057,0.0558,0.0569,0.0526,0.0527,0.0525,0.0538,0.0537,0.0536,0.0534,0.0556,0,0,0,0,0,0.0381,0.0404,0.0388,0.0409,0.0428,0.0454,0.0473,0.0509,0.0528,0.0558,0.0563,0.0571,0.0537,0.0549,0.0522,0.0507,0.0491,0.0501,0.05,0.05,0.0495,0.0446,0.044,0.0501,0.0501,0.0501,0,0,0.0391,0.0405,0.0417,0.0417,0.0453,0.0459,0.0481,0.0547,0.0551,0.0554,0.0594,0.0578,0.0534,0.0506,0.0513,0.0515,0.048,0.0498,0.0498,0.0492,0.0444,0.0438,0.0432,0.05,0.05,0.0501,0,0,0.0438,0.0449,0.0494,0.0498,0.0558,0.0537,0.0577,0.0597,0.062,0.0628,0.062,0.061,0.0587,0.0525,0.0494,0.0476,0.0475,0.0482,0.0479,0.0432,0.0427,0.0421,0.0422,0.0416,0.0483,0.0483,0.0483,0,0.0472,0.0495,0.0504,0.0545,0.0546,0.0584,0.0607,0.0605,0.0626,0.0613,0.0663,0.0586,0.0577,0.0485,0.048,0.0473,0.0468,0.0489,0.0431,0.0426,0.042,0.0421,0.0415,0.0483,0.0483,0.0483,0.0483,0,0.0532,0.0561,0.0597,0.0638,0.0628,0.0668,0.0643,0.0656,0.069,0.0662,0.0629,0.0588,0.0537,0.0522,0.0501,0.0437,0.0455,0.0436,0.0437,0.0415,0.0418,0.0411,0.0484,0.0484,0.0484,0.0484,0,0,0.0588,0.0629,0.066,0.0653,0.0682,0.066,0.0667,0.0621,0.0612,0.0622,0.0574,0.0518,0.0519,0.0482,0.0446,0.0406,0.0382,0.042,0.0417,0.0426,0.032,0.0267,0.0255,0.036,0.0358,0.0356,0.0348,0,0.0652,0.0712,0.0709,0.072,0.0713,0.0696,0.0662,0.0632,0.0609,0.0564,0.0523,0.0481,0.0493,0.048,0.044,0.0379,0.0362,0.0389,0.0333,0.0332,0.0291,0.0243,0.0351,0.0343,0.0341,0.034,0.0339,0,0.0714,0.0725,0.0762,0.0696,0.07,0.0702,0.0623,0.06,0.0537,0.0528,0.0488,0.0461,0.0396,0.0424,0.0337,0.036,0.0356,0.0324,0.0322,0.0258,0.0265,0.036,0.0328,0.0329,0.033,0.033,0.0331,0,0.0708,0.0741,0.0755,0.0748,0.0699,0.0698,0.0673,0.0612,0.0555,0.0518,0.0485,0.0421,0.039,0.0353,0.0331,0.0334,0.0249,0.0237,0.0188,0.0188,0.0238,0.0243,0.0193,0.0193,0.0193,0.0193,0.0193,0,0.0703,0.0722,0.0765,0.0759,0.0719,0.0705,0.0653,0.0622,0.0564,0.0486,0.0483,0.0394,0.0373,0.0323,0.0314,0.0235,0.0246,0.0174,0.0161,0.0249,0.0254,0.0236,0.0241,0.0193,0.0193,0.0193,0.0193,0,0.0663,0.0726,0.0713,0.0716,0.0715,0.0688,0.0634,0.0569,0.0564,0.0465,0.0459,0.0369,0.0291,0.0278,0.021,0.0199,0.0141,0.013,0.0261,0.0259,0.0121,0.0127,0.0033,0.003,0.0028,0.0027,0.0025,0,0.0624,0.0642,0.0684,0.0667,0.0678,0.0647,0.0604,0.0577,0.0505,0.0418,0.0348,0.0275,0.0221,0.0083,0.0085,0.0069,0.007,0.0091,0.0062,0.0097,0.0095,0.0104,0.0112,0.0022,0.0021,0.0021,0.002,0,0.0509,0.0597,0.058,0.0594,0.0577,0.0496,0.046,0.0393,0.0351,0.0357,0.0213,0.0155,0.0055,-0.0009,0.0018,-0.0002,0.0087,0.0069,0.0072,0.0045,0.0083,0.0085,0.0095,0.0013,0.0014,0.0015,0.0015,0,0.0434,0.0421,0.0479,0.0469,0.0445,0.0364,0.0334,0.0249,0.0185,0.014,0.0084,0.0024,0.0017,-0.0049,-0.0052,-0.0052,-0.0082,-0.0061,-0.0052,-0.0044,-0.0066,-0.0028,-0.0164,0,0,0,0,0,0.0332,0.035,0.0333,0.0318,0.0305,0.0312,0.023,0.0203,0.019,0.0074,0.0086,-0.0001,-0.0065,-0.0117,-0.0142,-0.0111,-0.0075,-0.0139,-0.0044,-0.0026,-0.0018,-0.0038,0,0,0,0,0,0,0.0264,0.0274,0.0305,0.023,0.0212,0.0161,0.0116,0.0093,0.0019,0.0028,-0.0034,0.0023,-0.0065,-0.0031,-0.0127,-0.0129,-0.0071,-0.0141,-0.0142,-0.0031,-0.0023,-0.0017,-0.0034,0,0,0,0,0]}]]